Location: Piolenc
(44.1794°N, 4.7641°E)
Time: 03:40:56
(UTC+00:00)

SJ-12 - Pass Details

Date: 27 January 2021
Orbit: 568 x 584 km, 97.7° (Epoch: 27 February)

Event Time Altitude Azimuth Distance (km) Brightness Sun altitude
Rises 04:57:01 0° 10° (N) 2,821 7.5 -22.7°
Reaches altitude 10° 04:59:12 10° 9° (N) 1,915 6.6 -22.4°
Maximum altitude 05:03:20 73° 285° (WNW) 614 3.8 -21.6°
Enters shadow 05:04:36 43° 212° (SSW) 827 4.4 -21.4°
